Regional Weather Roundup
Issued by NWS

Home | Current Version | Previous Version | Text Only | Print | Product List | Glossary Off
Versions: 1 2 3 4 5 6 7 8 9 10 11 12 13 14 15 16 17 18 19 20 21 22 23 24 25 26 27 28 29 30 31 32 33 34 35 36 37 38 39 40 41 42 43 44 45 46 47 48 49 50

000
ASUS45 KPSR 241600
RWRAZ

PRELIMINARY ARIZONA REGIONAL HOURLY WEATHER ROUNDUP
NATIONAL WEATHER SERVICE PHOENIX AZ
900 AM MST FRI OCT 24 2014

NOTE: FAIR INDICATES FEW OR NO CLOUDS BELOW 12,000 FEET WITH NO
SIGNIFICANT WEATHER AND/OR OBSTRUCTIONS TO VISIBILITY.

AZZ001>003-036-241700-
NORTHWEST ARIZONA

CITY           SKY/WX    TMP DP  RH WIND       PRES   REMARKS
KINGMAN        SUNNY     71  42  35 VRB6      30.20R
$$

AZZ004>008-015-016-018-241700-
NORTH CENTRAL ARIZONA

CITY           SKY/WX    TMP DP  RH WIND       PRES   REMARKS
GRAND CANYON   SUNNY     58  37  45 CALM      30.39R
PRESCOTT       SUNNY     59  37  44 N3        30.30R
FLAGSTAFF      SUNNY     61  40  45 CALM      30.41R
PAYSON         SUNNY     68  45  42 E5        30.33R
PAGE           SUNNY     62  32  32 NE3       30.29R
$$

AZZ009>014-017-241700-
NORTHEAST ARIZONA

CITY           SKY/WX    TMP DP  RH WIND       PRES   REMARKS
WINSLOW        NOT AVBL
SAINT JOHNS    SUNNY     55  38  52 CALM      30.36R
WINDOW ROCK    SUNNY     53  31  42 CALM      30.43R
$$

AZZ023-241700-
GREATER PHOENIX AREA

CITY           SKY/WX    TMP DP  RH WIND       PRES   REMARKS
PHOENIX        SUNNY     78  48  34 E10       30.06R
GLENDALE       SUNNY     75  52  43 CALM      30.08R
DEER VALLEY    SUNNY     75  45  34 CALM      30.07R
SCOTTSDALE     SUNNY     74  47  38 CALM      30.09R
MESA-GATEWAY   SUNNY     72  52  49 CALM      30.09R
$$

AZZ027-028-241700-
SOUTHWEST MARICOPA COUNTY AND PINAL COUNTY

CITY           SKY/WX    TMP DP  RH WIND       PRES   REMARKS
CASA GRANDE    SUNNY     72  48  43 CALM      30.09R
GILA BEND      SUNNY     75  48  38 NE3       30.05R
$$

AZZ503-504-507>509-241700-
SOUTHEAST ARIZONA

CITY           SKY/WX    TMP DP  RH WIND       PRES   REMARKS
TUCSON         SUNNY     73  48  41 SE7       30.16R
DAVIS-MONTHAN  SUNNY     73  49  42 S8        30.14R
RYAN FIELD       N/A     72  52  49 E8        30.15R
NOGALES        SUNNY     71  49  45 CALM      30.22R
SIERRA VISTA   SUNNY     70  46  43 CALM      30.28R
SAFFORD        SUNNY     67  49  52 SE9       30.21R
$$

AZZ020-021-025-026-031-241700-
SOUTHWEST ARIZONA

CITY           SKY/WX    TMP DP  RH WIND       PRES   REMARKS
YUMA           SUNNY     78  45  30 NE8       29.98R
$$

CAZ031-033-041-043-047-048-061-241700-
SOUTHERN CALIFORNIA

CITY           SKY/WX    TMP DP  RH WIND       PRES   REMARKS
DOWNTOWN L.A.  SUNNY     68  47  46 CALM      29.99R
L.A. AIRPORT   MOSUNNY   68  50  52 E3        29.99R
SAN DIEGO      SUNNY     70  52  52 CALM      30.00R
BURBANK        SUNNY     66  41  40 CALM      30.01R
ONTARIO        SUNNY     72  38  29 CALM      30.02R
RIVERSIDE      SUNNY     68  40  35 NE3       30.02R
PALM SPRINGS   SUNNY     80  35  19 N5        30.01R
EL CENTRO NAS  SUNNY     74  44  34 W3        29.98R
IMPERIAL       SUNNY     74  49  41 W3        29.97R
BLYTHE         SUNNY     71  47  42 CALM      30.02R
$$

NVZ020-UTZ003-241700-
SOUTHERN NEVADA-UTAH

CITY           SKY/WX    TMP DP  RH WIND       PRES   REMARKS
LAS VEGAS      NOT AVBL
SALT LAKE CITY MOSUNNY   58  43  57 CALM      30.17S
$$

NMZ009-TXZ055-241700-
NEW MEXICO-WEST TEXAS

CITY           SKY/WX    TMP DP  RH WIND       PRES   REMARKS
ALBUQUERQUE    MOSUNNY   59  33  37 NE8       30.36R
EL PASO        SUNNY     66  52  60 CALM      30.27R
$$


........................KEY........................
SKY/WX - SKY CONDITION/WEATHER
TMP    - TEMPERATURE IN FAHRENHEIT
DP     - DEW POINT IN FAHRENHEIT
RH     - RELATIVE HUMIDITY IN PERCENT
WIND   - DIRECTION AND SPEED IN MILES PER HOUR (MPH)
VRB    - VARIABLE WIND DIRECTION
PRES   - MEAN SEA LEVEL PRESSURE IN INCHES OF MERCURY
         F - FALLING PRESSURE   R - RISING PRESSURE
         S - STEADY PRESSURE
VSB    - VISIBILITY IN MILES
HX     - HEAT INDEX IN FAHRENHEIT
WCI    - WIND CHILL INDEX IN FAHRENHEIT
TC     - TEMPERATURE IN CELSIUS WHICH IS ALSO KNOWN AS
         TEMPERATURE IN CENTIGRADE
AFB    - AIR FORCE BASE
         LUKE AFB IS LUKE AIR FORCE BASE
         DAVIS-MONTHAN IS DAVIS-MONTHAN AIR FORCE BASE
NAS    - NAVAL AIR STATION
         EL CENTRO NAS IS EL CENTRO NAVAL AIR STATION
N/A    - NOT AVAILABLE



USA.gov is the U.S. government's official web portal to all federal, state and local government web resources and services.